148P/Anderson-LINEAR (2022)

Japanese version
Home page
Updated on March 27, 2022

---------------------------------------------------------------------

* Profile

* Pictures

* Orbital Elements

Epoch 2022 Jan. 21.0 TT = JDT 2459600.5
T 2022 June 13.66272 TT                                 Rudenko
q   1.6287532            (2000.0)            P               Q
n   0.14322478     Peri.    8.01871     -0.12558633     -0.99002945
a   3.6179060      Node    89.21232     +0.90664124     -0.14063973
e   0.5498078      Incl.    3.65800     +0.40277752     +0.00788429
P   6.88
From 116 observations 2014 Aug. 27-2022 Jan. 21, mean residual 0".4.
     Nongravitational parameters A1 = -0.15, A2 = -0.2069.

* Magnitudes Graph

        m1 = 12.5 + 5 log d + 14.0 log r

---------------------------------------------------------------------

The orbital elements are published on M.P.E.C. 2022-C56.
The magnitudes graphs are made with Comet for Windows.

---------------------------------------------------------------------

Copyright(C) Seiichi Yoshida (comet@aerith.net). All rights reserved.